Lid_Strength_Index
15 17 18 17 18 17 18 18 19 19 17 18 18 18 15 15 16 16 16 16 16 15 15 15 15 14 14 13 13 13 14 14 14 14 14 13 13 12 12 11 10 10 10 9
17 18 16 16 17 17 18 19 19 18 17 18 19 18 15 16 16 17 17 16 16 16 16 15 15 14 13 13 13 14 14 13 13 13 13 13 13 13 12 11 10 10 10 9
18 17 16 16 18 18 19 19 19 18 18 18 19 18 17 16 16 16 16 16 16 16 16 15 14 15 14 14 14 13 13 13 13 13 12 13 13 13 12 11 11 10 10 10
18 17 17 18 18 17 19 18 18 18 20 23 19 22 18 18 17 17 17 17 17 15 15 15 15 15 15 15 14 13 13 13 13 13 13 13 13 13 13 12 11 11 10 10
18 19 18 19 18 17 18 18 18 18 22 24 22 24 19 18 18 18 18 17 17 16 15 15 15 14 14 14 14 14 13 13 12 12 12 12 12 12 12 12 12 12 11 11
18 17 18 18 18 18 17 18 18 19 23 27 24 23 21 19 19 18 18 17 16 16 15 15 14 14 14 14 14 14 13 13 11 11 12 12 13 13 13 13 13 13 12 12
19 19 18 17 18 18 18 20 27 26 27 25 22 25 20 18 18 18 17 17 17 16 15 15 14 14 14 13 14 13 13 12 12 12 13 13 13 13 14 14 13 14 13 13
21 22 18 17 18 19 19 20 23 27 26 24 22 25 19 18 18 17 16 16 16 16 15 15 15 14 14 14 14 14 12 12 13 13 13 13 13 14 14 14 13 13 12 12
20 19 18 17 17 17 19 21 18 26 32 27 23 21 18 18 18 17 16 14 14 15 15 15 15 14 14 14 14 12 12 12 13 13 13 13 13 13 13 13 13 13 12 12
16 18 17 16 15 16 18 17 20 21 25 28 24 24 20 19 19 17 15 14 14 14 15 14 14 14 14 14 13 12 12 13 13 13 13 12 12 12 12 12 12 12 11 11
16 15 18 17 18 18 19 19 18 17 18 23 25 21 17 18 17 16 15 14 14 14 14 14 14 14 15 14 13 13 13 13 12 12 12 11 11 11 11 11 12 11 10 11
15 16 23 19 18 17 18 18 17 19 21 20 20 21 16 16 16 15 14 13 13 14 14 14 14 14 14 14 14 14 13 12 12 11 11 11 10 10 10 10 10 11 10 10
14 18 25 21 19 18 19 18 17 18 19 22 22 20 16 15 14 13 13 13 14 14 14 13 13 13 13 13 13 13 12 12 11 11 11 11 10 10 11 11 10 10 10 10
10 15 19 21 19 18 19 18 16 17 23 21 20 19 16 15 14 12 12 13 14 14 14 13 13 13 13 12 13 13 13 12 11 11 11 12 11 11 11 11 10 10 10 10
12 20 19 20 17 17 16 16 16 17 16 19 17 17 13 12 13 12 12 12 13 14 13 13 13 13 13 13 13 13 13 12 11 12 12 12 11 11 11 11 11 10 10 10
13 20 21 22 20 16 15 14 16 16 16 17 17 17 12 11 11 12 12 13 14 14 13 13 12 12 12 12 12 12 12 12 11 11 11 11 11 11 11 10 10 10 11 10
16 19 20 24 22 22 21 17 15 16 16 15 17 13 11 13 12 12 12 12 12 13 14 14 13 13 13 13 12 13 13 12 12 10 10 11 11 10 10 10 10 11 11 11
15 17 15 21 21 21 17 17 16 14 13 13 12 12 12 12 12 12 11 12 12 14 13 13 13 14 14 13 12 13 13 14 13 11 12 12 12 11 10 10 10 10 11 12
11 13 16 17 23 19 16 17 17 16 16 12 12 11 11 12 13 13 11 11 12 15 14 14 14 14 15 16 14 15 16 16 15 16 15 14 13 11 10 10 10 11 12 12
12 11 13 21 20 23 18 15 14 14 18 13 13 12 12 13 16 13 11 12 13 16 18 15 14 15 16 16 17 16 15 17 16 15 14 14 15 13 11 11 11 11 12 12
15 14 15 15 18 20 16 15 14 21 18 14 13 13 13 13 12 12 13 12 13 16 16 15 16 15 15 17 16 17 18 16 15 15 15 15 15 15 14 11 11 12 13 12
18 17 17 15 17 19 14 15 16 13 13 12 13 13 13 13 12 12 12 11 12 15 16 15 16 15 15 14 15 16 18 15 16 16 17 16 16 15 14 11 11 12 12 13
17 13 16 15 16 11 13 12 11 12 12 12 12 13 13 12 13 12 12 12 12 13 14 15 16 14 13 14 14 14 14 16 16 18 13 13 16 14 14 15 11 12 12 13
13 11 13 12 11 12 12 12 12 12 11 10 11 12 12 12 12 11 12 12 12 12 12 14 14 15 14 14 14 14 14 15 17 17 16 13 16 16 16 14 11 12 12 13
12 12 12 13 11 11 11 11 11 11 10 10 10 10 11 11 11 11 12 12 12 11 11 12 12 12 13 12 14 15 14 15 15 16 15 13 14 15 15 16 15 14 13 11
10 11 13 13 10 9 9 9 9 10 9 9 9 9 9 10 11 12 12 12 12 12 12 13 13 13 13 14 14 14 15 15 15 14 14 14 14 15 15 15 16 11 11 11